This demonstration page uses our WeatherBlox Daily Observations layout. Learn more.

Left ArrowRight Arrow

Hourly Observations for March 12, 2018

Temp ( °F °C ) Dew Point ( °F °C ) Humidity (%) Winds ( mph kmh ) Pressure ( in mb ) Visibility ( mi km ) Precip ( " mm )
12:53 am 00:53 Clear 48 8.9 41 5 77 77 Calm 30.08 1019 10 16 0.00 0.00
1:53 am 01:53 Clear 46 7.8 40 4.4 79 79 NNW 3 6 30.09 1019 10 16 0.00 0.00
2:53 am 02:53 Clear 45 7.2 40 4.4 83 83 Calm 30.10 1019 10 16 0.00 0.00
3:53 am 03:53 Clear 44 6.7 40 4.4 85 85 NW 6 9 30.09 1019 10 16 0.00 0.00
4:53 am 04:53 Clear 41 5 37 2.8 86 86 Calm 30.09 1019 10 16 0.00 0.00
5:53 am 05:53 Mostly Cloudy 45 7.2 40 4.4 83 83 Calm 30.08 1019 10 16 0.00 0.00
6:53 am 06:53 Cloudy 46 7.8 41 5 83 83 Calm 30.08 1019 10 16 0.00 0.00
7:53 am 07:53 Mostly Cloudy 48 8.9 40 4.4 74 74 NNW 3 6 30.07 1018 10 16 0.00 0.00
8:53 am 08:53 Mostly Cloudy 50 10 41 5 71 71 NW 3 6 30.08 1019 10 16 0.00 0.00
9:53 am 09:53 Mostly Cloudy 56 13.3 43 6.1 62 62 N 5 7 30.07 1018 10 16 0.00 0.00
10:53 am 10:53 Cloudy 59 15 43 6.1 56 56 Calm 30.07 1018 10 16 0.00 0.00
11:53 am 11:53 Cloudy 62 16.7 43 6.1 50 50 Calm 30.05 1018 10 16 0.00 0.00
12:53 pm 12:53 Cloudy 65 18.3 44 6.7 47 47 VRB 3 6 30.03 1017 10 16 0.00 0.00
1:53 pm 13:53 Sunny 66 18.9 46 7.8 49 49 SW 3 6 29.99 1016 10 16 0.00 0.00
2:53 pm 14:53 Cloudy 67 19.4 48 8.9 51 51 SE 5 7 29.96 1015 10 16 0.00 0.00
3:53 pm 15:53 Mostly Cloudy 68 20 48 8.9 49 49 SW 7 11 29.94 1014 10 16 0.00 0.00
4:53 pm 16:53 Mostly Sunny 67 19.4 49 9.4 53 53 WNW 3 6 29.92 1013 10 16 0.00 0.00
5:53 pm 17:53 Cloudy 67 19.4 49 9.4 53 53 NW 3 6 29.89 1012 10 16 0.00 0.00
6:53 pm 18:53 Mostly Cloudy 65 18.3 49 9.4 56 56 N 5 7 29.86 1011 10 16 0.00 0.00
7:53 pm 19:53 Cloudy 64 17.8 50 10 60 60 Calm 29.86 1011 10 16 0.00 0.00
8:53 pm 20:53 Cloudy with Light Rain 61 16.1 54 12.2 78 78 NW 6 9 29.85 1011 10 16 0.00 0.03
9:53 pm 21:53 Cloudy with Light Rain 60 15.6 54 12.2 80 80 Calm 29.83 1010 10 16 0.01 0.25
10:53 pm 22:53 Cloudy with Light Rain 58 14.4 56 13.3 93 93 Calm 29.83 1010 9 14 0.02 0.51
11:12 pm 23:12 Cloudy with Light Rain 58 14.4 56 13.3 93 93 S 6 9 29.85 1011 4 6 0.02 0.51
11:35 pm 23:35 Cloudy with Light Rain 57 13.9 56 13.3 96 96 Calm 29.85 1011 3 4 0.08 2.03
11:38 pm 23:38 Cloudy with Light Rain 58 14.4 56 13.3 93 93 SSW 5 7 29.85 1011 3 5 0.08 2.03
11:49 pm 23:49 Cloudy with Mist and Fog 57 14 57 14 100 100 Calm 29.85 1011 5 8 0.08 2.03
11:53 pm 23:53 Cloudy with Light Rain 58 14.4 57 13.9 97 97 SSW 5 7 29.84 1011 5 8 0.08 2.03

Powered by AerisWeather